Location: Kerb�bon
(47.7970°N, 3.3487°W)
Time: 12:13:11
(UTC+00:00)

SL-27 R/B - Pass Details

Date: 12 May 2021
Orbit: 418 x 468 km, 74.7° (Epoch: 18 June)

Event Time Altitude Azimuth Distance (km) Brightness Sun altitude
Rises 23:45:24 0° 341° (NNW) 2,383 7.4 -23.6°
Reaches altitude 10° 23:47:28 10° 345° (NNW) 1,518 6.1 -23.6°
Enters shadow 23:49:56 43° 9° (N) 609 3.4 -23.7°
